CAPE
304 336 433 412 386 817 1087 1310 1281 1446 1486 1394 1261 2107 1821 1721 1785 1667 1760 1926 1814 1743 1360 1503 1605 1275 1143 1159 822 772 1018 1003 709 642 782 792 604 395 361 124 360 0 2
228 128 281 267 345 433 496 1010 1132 1583 1212 1298 1531 1990 1919 1571 1565 1546 1273 1437 1632 1447 1481 1375 1458 1059 789 903 917 751 675 587 578 676 404 347 485 519 323 175 314 40 7
29 246 243 239 342 403 390 311 757 1079 1161 1374 1120 1456 1807 1710 1451 1320 1137 1134 1187 1511 1308 1589 1416 1018 765 633 1155 912 609 499 570 494 285 143 189 454 250 187 279 48 32
67 136 202 247 364 314 324 226 267 457 786 999 1041 1087 1377 1652 1594 1412 1252 1130 1019 1375 1463 1618 1391 1632 1490 1111 1118 1057 646 485 539 314 85 86 97 325 286 248 110 19 19
39 4 64 98 318 364 337 251 206 235 275 353 756 906 859 1028 1424 1561 1285 1431 1597 1498 1445 1647 1559 1516 1302 1080 967 996 731 751 392 145 69 71 107 280 293 292 128 36 9
13 8 2 29 47 185 341 265 215 149 208 190 304 302 794 811 686 749 1142 1182 1318 1301 1434 1643 1732 1583 1425 1114 875 949 887 742 347 141 72 64 101 334 410 405 121 16 7
0 0 0 0 9 9 66 226 238 212 128 156 113 217 247 313 808 670 742 851 916 1212 1391 1579 1271 1379 1355 1187 765 731 1130 654 147 89 81 48 75 343 282 176 44 21 8
0 0 0 0 0 0 0 6 127 228 166 191 104 82 83 79 29 385 726 745 976 814 1232 1367 1345 1332 1100 893 865 904 833 504 137 14 46 25 72 350 176 133 36 11 6
0 0 1 0 1 0 0 0 0 7 88 161 128 123 117 94 38 20 13 341 700 920 766 1234 1178 1181 918 900 926 780 574 224 27 2 2 14 166 352 231 42 28 7 4
0 0 0 0 0 0 0 0 0 0 0 20 76 168 136 154 135 65 17 0 150 906 784 749 1142 1216 1065 1017 682 566 326 161 0 0 0 15 234 333 360 73 36 7 3
0 0 0 0 0 0 0 0 0 0 0 0 0 5 89 78 84 190 129 27 3 53 662 728 918 927 783 757 559 509 219 33 0 0 0 20 386 415 415 132 29 7 3
0 0 0 0 0 0 0 0 0 0 0 0 0 0 0 3 58 152 155 191 60 10 43 486 777 754 477 699 546 414 164 22 0 0 0 57 393 504 513 295 275 77 11
0 0 0 0 0 0 0 0 0 0 0 0 0 0 0 0 0 7 106 135 186 76 14 25 187 391 380 428 492 278 235 110 0 0 0 17 571 435 490 490 462 213 25
0 0 0 0 0 0 0 0 0 0 0 0 0 0 0 0 0 0 5 40 134 155 80 84 119 235 336 198 295 200 215 67 0 0 0 9 330 799 505 391 250 160 90
0 0 0 0 0 0 0 0 0 0 0 0 0 0 0 0 0 0 0 0 23 71 64 46 59 120 202 137 147 120 67 38 38 0 0 0 82 779 738 787 433 75 19
0 0 0 0 0 0 0 0 0 0 0 0 0 0 0 0 0 0 0 0 2 9 26 51 32 67 212 158 132 133 72 43 65 0 0 0 125 418 598 821 702 274 73
0 0 0 0 0 0 0 0 0 0 0 0 0 0 0 0 0 0 0 0 0 3 4 47 24 47 110 132 136 106 140 86 73 0 0 0 21 203 447 894 653 568 371
0 0 0 0 0 0 0 0 0 0 0 0 0 0 0 0 0 0 0 0 0 0 8 11 15 44 38 96 119 117 125 139 53 0 0 0 0 29 381 635 749 597 435
0 0 0 0 0 0 0 0 0 0 0 0 0 0 0 0 0 0 0 0 0 0 0 4 60 0 13 4 185 118 121 150 69 0 0 0 6 24 59 408 374 327 76
0 0 0 0 0 0 0 0 0 0 0 0 0 0 0 0 0 0 0 0 0 0 0 0 6 79 30 30 73 138 114 94 43 3 0 0 1 8 6 62 225 217 85
0 0 0 0 0 0 0 0 0 0 0 0 0 0 0 0 0 0 0 0 0 0 0 0 0 15 0 27 21 82 33 45 58 29 3 0 0 0 3 15 116 136 24
0 0 0 0 0 0 0 0 0 0 0 0 0 0 0 0 0 0 0 0 0 0 0 0 0 4 0 20 8 65 0 1 25 21 9 20 2 1 8 21 40 91 50
0 0 0 0 0 0 0 0 0 0 0 0 0 0 0 0 0 0 0 0 0 0 0 0 0 3 23 5 16 58 17 0 0 14 5 4 1 12 6 22 39 53 67
0 0 0 0 0 0 0 0 0 0 0 0 0 0 0 0 0 0 0 0 0 0 0 0 0 0 7 52 10 66 10 13 0 5 0 3 25 27 9 19 47 58 53
0 0 0 0 0 0 0 0 0 0 0 0 0 0 0 0 0 0 0 0 0 0 0 0 0 0 5 0 72 48 41 37 17 2 0 0 44 41 24 12 48 79 62
0 0 0 0 0 0 0 0 0 0 0 0 0 0 0 0 0 0 0 0 0 0 0 0 0 0 0 7 4 24 41 62 27 7 0 0 0 2 45 15 0 56 63
CIN
-8 -11 0 0 -3 0 0 0 -5 -12 -9 -8 -16 -2 -4 -4 -6 -4 -4 -3 -8 -5 -7 0 0 0 0 0 0 -1 0 0 0 0 0 0 0 0 0 -21 -12 -1 0
-4 -8 0 0 -4 -1 0 0 0 -2 -11 -10 -8 0 -3 -8 -6 -8 -19 -10 -4 -8 0 0 0 0 0 0 0 -1 -1 0 -2 -3 -7 -9 -4 0 -6 -25 -16 -1 0
-93 -7 0 0 0 0 -7 -37 0 0 -1 -3 -8 -8 -4 -3 -4 -6 -13 -11 -12 -4 -4 0 0 0 0 -3 0 0 -2 -5 -3 -6 -12 -28 -27 -1 -26 -42 -40 -1 -3
-100 -31 -9 -4 0 -5 -7 -31 -33 -5 0 0 -2 -3 -5 -6 -6 -7 -8 -9 -7 -3 -5 -1 -4 0 0 0 0 0 -9 -8 -6 -12 -67 -54 -49 -10 -33 -39 -94 -21 -15
-102 -180 -37 -21 0 -5 -12 -44 -60 -36 -33 -17 0 0 -2 -1 -3 -4 -7 -3 -1 -3 -3 -2 -2 0 0 0 0 -1 -8 -3 -9 -45 -86 -62 -43 -25 -27 -50 -95 -6 -32
-172 -194 -197 -56 -36 -17 0 -26 -50 -72 -55 -41 -26 -7 0 -1 -3 -3 -3 -9 -7 -5 -4 -2 0 -1 0 0 0 0 0 -3 -15 -42 -99 -89 -73 -11 -14 -41 -100 -14 0
0 0 0 0 -68 -74 -43 -17 -24 -37 -78 -68 -55 -26 -12 -18 0 -1 -5 -6 -10 -7 -3 -1 -2 -1 -1 0 0 0 0 -5 -59 -86 -97 -28 -120 -11 -37 -86 -7 -22 0
0 0 0 0 0 0 0 -42 -23 -17 -19 -31 -76 -97 -72 -49 -131 -8 0 -4 -2 -7 -3 -1 -1 0 -1 0 0 0 -1 -7 -69 -4 -4 -6 -35 -29 -74 -97 -15 -36 0
0 0 0 0 0 0 0 0 0 -6 -21 -20 -20 -42 -48 -67 -113 -115 -116 -9 -1 -2 -4 -2 -1 -1 -2 0 0 -1 -4 -32 -62 -33 -3 -22 -97 -33 -63 -17 -20 0 0
0 0 0 0 0 0 0 0 0 0 0 -26 -27 -12 -13 -11 -35 -78 -106 0 -33 0 -2 -3 -1 0 -2 -1 -1 -4 -16 -37 0 0 0 -31 -91 -52 -55 -7 -16 0 0
0 0 0 0 0 0 0 0 0 0 0 0 0 -11 -17 -18 -23 -5 -11 -56 -30 -49 0 -1 0 -1 -6 -4 -8 -9 -29 -55 0 0 0 -77 -45 -31 -42 -103 -15 0 0
0 0 0 0 0 0 0 0 0 0 0 0 0 0 0 -2 -9 -1 -9 -2 -11 -51 -25 0 0 -2 -5 -4 -4 -15 -26 -66 0 0 0 -114 -30 -6 -21 -58 -57 -101 0
0 0 0 0 0 0 0 0 0 0 0 0 0 0 0 0 0 -9 -3 -2 -3 -5 -22 -22 -2 -3 -2 -5 -4 -19 -22 -44 0 0 0 -14 -11 -7 -10 -25 -28 -61 -41
0 0 0 0 0 0 0 0 0 0 0 0 0 0 0 0 0 0 -5 -21 -1 -1 -2 0 0 0 -5 -19 -9 -21 -24 -50 0 0 0 -9 -27 -3 -1 -25 -41 -64 -88
0 0 0 0 0 0 0 0 0 0 0 0 0 0 0 0 0 0 0 0 -14 -4 -6 -5 -2 0 0 -19 -22 -24 -42 0 0 0 0 0 -94 -17 -6 0 -8 -95 -1
0 0 0 0 0 0 0 0 0 0 0 0 0 0 0 0 0 0 0 0 -3 -7 -2 -1 -3 0 0 -7 -23 -20 0 0 -29 0 0 0 -38 -45 -21 0 0 -26 -91
0 0 0 0 0 0 0 0 0 0 0 0 0 0 0 0 0 0 0 0 0 0 -3 -1 0 -2 -5 -33 -11 -22 -12 -8 0 0 0 0 -29 -41 -40 -7 0 0 -10
0 0 0 0 0 0 0 0 0 0 0 0 0 0 0 0 0 0 0 0 0 0 0 0 -1 0 0 0 -2 -1 -14 0 0 0 0 0 -6 -56 -32 -17 0 -1 0
0 0 0 0 0 0 0 0 0 0 0 0 0 0 0 0 0 0 0 0 0 0 0 0 0 -8 -11 -5 0 -4 -2 0 0 0 0 0 -74 -56 -56 -20 -15 -1 -32
0 0 0 0 0 0 0 0 0 0 0 0 0 0 0 0 0 0 0 0 0 0 0 0 -1 0 0 -17 -28 -2 0 -3 -2 -4 0 0 -11 -63 -104 -93 -18 -2 -16
0 0 0 0 0 0 0 0 0 0 0 0 0 0 0 0 0 0 0 0 0 0 0 0 0 -4 0 -3 0 -4 -1 -1 -1 0 -11 0 0 -3 -141 -102 -52 -13 -16
0 0 0 0 0 0 0 0 0 0 0 0 0 0 0 0 0 0 0 0 0 0 0 0 0 0 0 0 -11 -1 0 0 0 0 0 -21 -5 -2 -57 -105 -53 -33 -8
0 0 0 0 0 0 0 0 0 0 0 0 0 0 0 0 0 0 0 0 0 0 0 0 0 0 0 -1 -18 0 -5 0 0 -3 -2 -4 -1 -13 -3 -95 -55 -41 -62
0 0 0 0 0 0 0 0 0 0 0 0 0 0 0 0 0 0 0 0 0 0 0 0 0 0 0 0 -3 -1 -21 0 0 -5 0 -18 -3 -13 -33 -89 -60 -42 -34
0 0 0 0 0 0 0 0 0 0 0 0 0 0 0 0 0 0 0 0 0 0 0 0 0 0 0 0 0 0 0 -9 0 -10 0 0 0 -11 -24 -5 -63 -65 -19
0 0 0 0 0 0 0 0 0 0 0 0 0 0 0 0 0 0 0 0 0 0 0 0 0 0 0 -1 0 0 -2 0 0 0 0 0 0 0 -17 -74 -7 -61 -50
Wind_Speed
28 28 35 40 43 41 40 31 23 22 21 19 21 20 20 22 23 23 23 21 22 22 23 21 21 20 20 20 19 20 19 17 15 14 12 12 13 14 14 13 12 nan nan
26 26 33 42 43 43 44 41 37 27 21 19 21 21 20 20 21 22 21 22 23 21 23 19 22 21 19 21 21 21 20 20 18 16 13 11 11 13 13 13 13 nan nan
nan 26 27 40 42 44 45 42 40 37 31 24 20 20 21 20 20 21 22 21 21 20 22 19 21 22 20 20 21 22 21 21 19 17 15 11 10 10 14 14 16 nan nan
nan 28 29 40 41 44 44 41 39 43 37 31 27 23 18 21 23 21 23 21 21 19 20 19 19 21 21 21 22 21 21 20 20 20 nan nan nan 7 15 17 19 nan nan
nan nan nan nan 44 45 46 45 42 41 39 40 38 31 26 19 22 22 22 22 22 22 21 19 19 21 22 22 21 21 20 19 20 21 nan nan 13 16 17 15 21 nan nan
nan nan nan nan nan 46 47 46 47 45 46 47 42 40 35 30 22 22 22 23 24 22 22 21 22 22 24 22 21 20 18 17 19 19 nan nan 11 16 17 22 23 nan nan
nan nan nan nan nan nan nan 49 47 47 48 49 49 47 43 38 33 26 22 22 23 22 21 22 24 23 23 24 20 20 18 17 22 nan nan nan nan 15 18 19 nan nan nan
nan nan nan nan nan nan nan nan 47 49 48 51 50 nan nan nan nan 36 28 22 19 21 20 21 23 25 23 23 20 19 18 19 23 nan nan nan nan 14 17 19 nan nan nan
nan nan nan nan nan nan nan nan nan nan nan 50 52 54 53 nan nan nan nan 34 20 21 21 22 22 24 23 21 21 21 18 20 nan nan nan nan 11 15 16 nan nan nan nan
nan nan nan nan nan nan nan nan nan nan nan nan nan 54 53 53 53 nan nan nan 42 23 21 22 24 25 26 24 22 21 21 20 nan nan nan nan 14 15 18 nan nan nan nan
nan nan nan nan nan nan nan nan nan nan nan nan nan nan nan nan nan 49 48 nan nan nan 30 21 24 24 29 28 26 24 22 nan nan nan nan nan 14 16 19 20 nan nan nan
nan nan nan nan nan nan nan nan nan nan nan nan nan nan nan nan nan 48 47 53 nan nan nan 35 24 25 31 35 34 31 30 nan nan nan nan nan 15 18 21 22 23 nan nan
nan nan nan nan nan nan nan nan nan nan nan nan nan nan nan nan nan nan 50 48 47 nan nan nan 39 37 34 40 39 41 38 33 nan nan nan nan 19 18 21 23 24 25 nan
nan nan nan nan nan nan nan nan nan nan nan nan nan nan nan nan nan nan nan nan 50 47 nan nan 43 38 39 37 40 41 41 nan nan nan nan nan 26 23 21 25 24 26 nan
nan nan nan nan nan nan nan nan nan nan nan nan nan nan nan nan nan nan nan nan nan nan nan nan nan 41 35 40 41 42 nan nan nan nan nan nan nan 28 28 26 26 nan nan
nan nan nan nan nan nan nan nan nan nan nan nan nan nan nan nan nan nan nan nan nan nan nan nan nan nan 33 37 44 44 nan nan nan nan nan nan 31 35 32 27 31 27 nan
nan nan nan nan nan nan nan nan nan nan nan nan nan nan nan nan nan nan nan nan nan nan nan nan nan nan 36 43 49 45 47 nan nan nan nan nan nan 36 35 32 30 28 27
nan nan nan nan nan nan nan nan nan nan nan nan nan nan nan nan nan nan nan nan nan nan nan nan nan nan nan nan 54 50 47 47 nan nan nan nan nan nan 40 36 33 32 27
nan nan nan nan nan nan nan nan nan nan nan nan nan nan nan nan nan nan nan nan nan nan nan nan nan nan nan nan 39 44 46 44 nan nan nan nan nan nan nan 41 39 32 nan
nan nan nan nan nan nan nan nan nan nan nan nan nan nan nan nan nan nan nan nan nan nan nan nan nan nan nan nan nan 51 52 nan nan nan nan nan nan nan nan nan 44 41 nan
nan nan nan nan nan nan nan nan nan nan nan nan nan nan nan nan nan nan nan nan nan nan nan nan nan nan nan nan nan nan nan nan nan nan nan nan nan nan nan nan 49 48 nan
nan nan nan nan nan nan nan nan nan nan nan nan nan nan nan nan nan nan nan nan nan nan nan nan nan nan nan nan nan nan nan nan nan nan nan nan nan nan nan nan nan nan nan
nan nan nan nan nan nan nan nan nan nan nan nan nan nan nan nan nan nan nan nan nan nan nan nan nan nan nan nan nan nan nan nan nan nan nan nan nan nan nan nan nan nan nan
nan nan nan nan nan nan nan nan nan nan nan nan nan nan nan nan nan nan nan nan nan nan nan nan nan nan nan nan nan nan nan nan nan nan nan nan nan nan nan nan nan nan nan
nan nan nan nan nan nan nan nan nan nan nan nan nan nan nan nan nan nan nan nan nan nan nan nan nan nan nan nan nan nan nan nan nan nan nan nan nan nan nan nan nan nan nan
nan nan nan nan nan nan nan nan nan nan nan nan nan nan nan nan nan nan nan nan nan nan nan nan nan nan nan nan nan nan nan nan nan nan nan nan nan nan nan nan nan nan nan
Wind_Direction
230 218 203 216 226 226 241 236 231 241 248 256 258 257 254 260 261 261 267 269 271 274 273 274 269 268 272 277 267 269 270 272 275 267 268 280 277 280 274 255 224 nan nan
226 218 205 220 226 227 234 240 243 236 234 248 257 264 262 256 258 261 261 266 270 273 277 278 275 269 268 271 271 271 273 278 266 262 256 253 273 279 269 245 218 nan nan
nan 221 216 219 222 226 229 231 236 242 239 234 246 255 267 265 260 255 259 259 267 270 275 276 274 269 265 268 269 269 274 279 267 257 256 238 241 279 274 249 228 nan nan
nan 219 217 218 221 225 228 233 234 229 233 241 237 230 247 265 267 263 258 256 257 260 268 272 272 266 269 268 270 269 273 273 259 248 nan nan nan 269 272 254 233 nan nan
nan nan nan nan 220 221 223 226 226 230 234 233 240 238 227 238 251 261 263 256 252 252 253 255 261 260 266 268 274 271 264 265 256 242 nan nan 230 265 270 256 238 nan nan
nan nan nan nan nan 227 228 226 225 222 227 231 230 231 236 220 226 240 247 260 248 249 252 253 256 267 266 269 273 276 258 255 250 233 nan nan 231 268 265 243 238 nan nan
nan nan nan nan nan nan nan 229 229 226 225 227 229 229 230 237 226 222 236 247 264 246 254 259 264 268 266 268 274 281 262 247 238 nan nan nan nan 274 267 253 nan nan nan
nan nan nan nan nan nan nan nan 230 231 227 226 226 nan nan nan nan 228 228 240 240 266 255 258 266 270 270 269 270 270 266 250 234 nan nan nan nan 275 271 264 nan nan nan
nan nan nan nan nan nan nan nan nan nan nan 230 227 226 228 nan nan nan nan 226 242 235 257 257 262 271 267 268 267 261 260 248 nan nan nan nan 259 277 279 nan nan nan nan
nan nan nan nan nan nan nan nan nan nan nan nan nan 228 229 230 228 nan nan nan 220 238 244 246 261 265 268 268 266 266 257 249 nan nan nan nan 266 280 280 nan nan nan nan
nan nan nan nan nan nan nan nan nan nan nan nan nan nan nan nan nan 232 223 nan nan nan 230 246 257 262 263 261 263 263 261 nan nan nan nan nan 249 277 281 280 nan nan nan
nan nan nan nan nan nan nan nan nan nan nan nan nan nan nan nan nan 235 233 224 nan nan nan 228 245 256 261 254 252 254 246 nan nan nan nan nan 247 270 282 275 272 nan nan
nan nan nan nan nan nan nan nan nan nan nan nan nan nan nan nan nan nan 240 240 236 nan nan nan 238 248 253 255 252 252 249 241 nan nan nan nan 240 262 280 278 272 274 nan
nan nan nan nan nan nan nan nan nan nan nan nan nan nan nan nan nan nan nan nan 237 238 nan nan 232 246 251 255 254 252 249 nan nan nan nan nan 233 251 272 286 280 274 nan
nan nan nan nan nan nan nan nan nan nan nan nan nan nan nan nan nan nan nan nan nan nan nan nan nan 227 247 254 251 253 nan nan nan nan nan nan nan 246 265 282 284 nan nan
nan nan nan nan nan nan nan nan nan nan nan nan nan nan nan nan nan nan nan nan nan nan nan nan nan nan 238 251 254 251 nan nan nan nan nan nan 237 247 255 267 281 284 nan
nan nan nan nan nan nan nan nan nan nan nan nan nan nan nan nan nan nan nan nan nan nan nan nan nan nan 238 270 250 248 244 nan nan nan nan nan nan 242 249 261 273 274 280
nan nan nan nan nan nan nan nan nan nan nan nan nan nan nan nan nan nan nan nan nan nan nan nan nan nan nan nan 254 238 239 234 nan nan nan nan nan nan 242 255 262 272 274
nan nan nan nan nan nan nan nan nan nan nan nan nan nan nan nan nan nan nan nan nan nan nan nan nan nan nan nan 261 245 238 242 nan nan nan nan nan nan nan 246 257 255 nan
nan nan nan nan nan nan nan nan nan nan nan nan nan nan nan nan nan nan nan nan nan nan nan nan nan nan nan nan nan 268 266 nan nan nan nan nan nan nan nan nan 245 244 nan
nan nan nan nan nan nan nan nan nan nan nan nan nan nan nan nan nan nan nan nan nan nan nan nan nan nan nan nan nan nan nan nan nan nan nan nan nan nan nan nan 241 244 nan
nan nan nan nan nan nan nan nan nan nan nan nan nan nan nan nan nan nan nan nan nan nan nan nan nan nan nan nan nan nan nan nan nan nan nan nan nan nan nan nan nan nan nan
nan nan nan nan nan nan nan nan nan nan nan nan nan nan nan nan nan nan nan nan nan nan nan nan nan nan nan nan nan nan nan nan nan nan nan nan nan nan nan nan nan nan nan
nan nan nan nan nan nan nan nan nan nan nan nan nan nan nan nan nan nan nan nan nan nan nan nan nan nan nan nan nan nan nan nan nan nan nan nan nan nan nan nan nan nan nan
nan nan nan nan nan nan nan nan nan nan nan nan nan nan nan nan nan nan nan nan nan nan nan nan nan nan nan nan nan nan nan nan nan nan nan nan nan nan nan nan nan nan nan
nan nan nan nan nan nan nan nan nan nan nan nan nan nan nan nan nan nan nan nan nan nan nan nan nan nan nan nan nan nan nan nan nan nan nan nan nan nan nan nan nan nan nan